Location: Cheyres
(46.8153°N, 6.7877°E)
Time: 21:44:27
(UTC+00:00)

QB50P2 - Pass Details

Date: 30 June 2022
Orbit: 590 x 605 km, 97.9° (Epoch: 15 August)

Event Time Altitude Azimuth Distance (km) Brightness Sun altitude
Rises 23:54:45 0° 28° (NNE) 2,860 ? -19.9°
Reaches altitude 10° 23:57:33 10° 48° (NE) 1,954 ? -19.8°
Maximum altitude 00:00:27 18° 92° (E) 1,508 ? -19.8°
Enters shadow 00:01:54 15° 117° (ESE) 1,629 ? -19.8°
